User: anonymous   Login
Location: Unspecified
(0.0000°N, 0.0000°E)
Time: 03:11:28
(UTC+00:00)
Language:

ZACube-1 - Orbit

View from above orbital plane
View from above orbital plane
View from above satellite
View from above satellite

Ground track
Ground track

The orbit data is extracted from the following two-line orbital elements,

1 39417U 13066B   18172.63895346  .00000160  00000-0  26513-4 0  9991
2 39417  97.5865 201.0408 0060204 139.4787 221.0932 14.80943044247450
Epoch (UTC): 21 June 2018 15:20:05
Eccentricity: 0.0060204
inclination: 97.5865°
perigee height: 584 km
apogee height: 668 km
right ascension of ascending node: 201.0408°
argument of perigee: 139.4787°
revolutions per day: 14.80943044
mean anomaly at epoch: 221.0932°
orbit number at epoch: 24745

The dashed part of the orbit path shows where the satellite is in the earth's shadow,  

DLR